RH
51 44 38 68 84 91 90 73 51 46 37 39 36 29 40 49 43 57 68 50 63 55 26 35 50 67 82 79 85 85 78 77 77 57 37 23 15 11 9 9 9 9 10 10 10 11 11 11 11
47 31 69 71 92 99 79 62 55 47 35 39 46 50 62 70 68 72 77 67 68 34 53 59 60 59 78 79 79 74 72 76 55 39 21 12 10 9 9 10 11 11 12 11 11 10 10 10 10
47 62 74 84 97 71 74 58 50 40 33 41 59 65 71 79 69 70 67 73 72 66 72 45 41 45 75 62 69 71 65 52 38 19 11 10 10 10 11 11 12 11 11 11 11 11 11 11 12
64 72 76 89 97 83 61 50 57 42 40 57 68 85 68 70 76 73 71 72 69 71 43 28 42 88 74 66 71 60 49 34 19 11 11 10 12 12 12 12 12 12 12 12 12 12 13 13 14
88 81 84 90 84 69 60 50 49 59 57 69 69 90 85 79 74 69 72 71 64 38 34 73 77 75 58 70 64 51 33 19 12 11 11 12 12 12 13 12 12 12 12 12 13 14 14 15 16
78 68 84 81 61 42 38 36 42 55 50 67 84 87 84 80 69 76 76 58 36 35 87 93 81 52 67 70 56 40 22 12 11 11 11 12 13 12 12 12 12 12 12 13 14 15 16 16 20
84 84 86 72 62 40 31 25 48 50 58 64 75 90 85 100 86 81 80 59 38 71 95 94 68 65 77 63 48 26 13 12 11 10 12 13 13 13 13 13 13 12 13 14 16 17 19 24 29
66 78 84 75 72 60 33 34 28 44 54 55 59 89 88 97 99 96 88 71 63 90 90 84 60 79 74 57 44 22 12 12 11 11 13 13 13 13 13 13 14 13 14 15 14 16 19 28 29
57 79 89 74 57 48 44 51 44 60 59 65 60 60 64 92 93 85 81 80 94 89 82 60 63 81 69 54 41 18 12 12 11 12 14 13 13 13 14 14 15 14 14 15 16 18 23 27 29
64 79 73 59 49 55 48 46 43 54 75 68 66 68 82 86 80 82 80 94 97 88 76 57 81 81 66 55 41 15 13 13 12 12 13 14 14 14 14 14 14 14 14 15 17 19 24 26 30
57 76 60 51 48 44 49 40 40 48 69 66 59 56 81 90 85 88 83 93 93 86 74 66 87 80 65 56 37 15 14 14 13 13 14 13 15 14 14 14 14 16 16 19 20 21 24 25 30
71 57 54 48 44 46 47 36 42 48 45 60 54 50 92 82 89 100 86 98 98 85 76 74 92 79 68 58 32 15 14 14 13 13 14 15 15 14 14 15 15 16 17 17 20 20 23 25 30
71 62 56 54 52 44 38 39 40 35 44 74 69 60 57 100 81 100 98 99 85 81 74 88 96 81 70 57 32 16 15 15 15 14 15 15 14 15 15 14 15 15 16 17 20 23 25 26 30
58 61 60 54 50 47 43 39 38 33 64 77 87 95 85 96 94 96 100 94 84 85 82 100 95 79 70 60 34 18 16 17 16 15 15 15 16 16 16 14 14 15 17 17 19 21 25 27 30
61 71 64 56 48 48 38 44 46 28 35 74 89 90 84 59 90 83 86 84 88 92 97 97 90 79 72 60 40 22 18 18 18 16 16 16 17 17 16 15 14 14 16 17 17 18 22 28 32
70 65 83 55 49 44 42 61 40 34 30 41 76 77 96 100 93 86 81 82 91 87 88 87 87 78 74 62 48 32 21 20 20 19 17 17 17 18 17 16 14 14 17 18 17 18 19 24 30
72 84 73 65 46 49 45 57 43 33 45 40 57 61 92 99 94 84 82 88 89 85 83 87 87 79 76 67 59 42 25 22 22 22 20 18 18 18 18 17 15 14 17 18 18 18 18 19 29
80 83 76 77 56 52 53 53 43 35 34 32 73 60 71 93 98 85 81 89 85 80 85 84 87 80 78 77 64 47 31 27 26 26 24 21 19 19 18 18 16 15 16 17 18 19 21 20 26
76 81 86 74 56 56 59 52 43 35 35 44 67 85 64 70 71 78 82 70 82 92 91 87 88 76 76 80 71 57 54 49 41 34 29 26 23 21 20 19 17 16 15 16 17 18 22 23 24
70 81 84 70 56 54 57 54 45 40 37 38 41 73 75 71 93 78 76 71 88 86 100 90 90 80 77 79 79 70 60 51 45 46 40 32 27 24 22 21 19 16 15 16 16 18 20 22 24
74 81 80 78 62 57 61 64 52 41 36 34 30 52 58 82 98 99 78 85 76 65 86 99 94 86 77 79 78 68 54 52 53 64 64 48 34 28 24 22 21 18 16 15 18 19 19 21 22
86 63 66 62 74 88 64 93 72 53 50 41 46 50 61 75 80 80 73 76 70 75 64 100 99 88 79 78 78 71 63 64 61 68 69 66 46 34 27 25 23 20 17 16 19 21 22 22 22
75 51 56 56 71 78 73 91 68 58 50 42 56 48 55 54 70 72 90 76 76 72 75 93 100 91 78 70 72 64 59 65 70 69 70 68 60 43 29 27 26 22 18 17 20 22 24 26 26
54 54 59 72 81 100 78 80 83 58 47 35 37 56 46 55 50 75 84 96 91 85 78 89 89 89 84 73 72 67 61 70 71 66 69 70 68 47 30 28 28 24 18 19 22 24 26 28 29
58 71 94 89 89 94 89 93 67 48 45 46 36 52 47 42 46 51 78 93 98 97 94 76 60 58 84 76 76 67 62 70 65 68 69 70 72 60 31 29 28 24 18 20 25 27 28 28 30
78 74 93 94 98 89 73 86 67 47 42 39 37 35 32 48 55 47 56 58 80 73 59 57 75 81 82 79 76 71 69 69 67 70 71 70 75 64 34 32 30 25 20 24 25 26 27 27 29
73 87 68 88 86 98 85 63 46 42 39 41 35 32 34 39 40 43 53 64 53 74 68 70 72 72 79 79 77 76 72 70 69 71 70 70 76 60 36 33 30 24 22 25 25 25 25 26 28
68 62 84 96 100 98 85 73 68 47 44 37 35 34 30 32 38 64 58 62 71 71 62 67 69 66 64 73 71 66 75 73 70 73 72 72 78 57 37 34 31 23 23 26 25 23 23 26 29
89 88 78 82 91 97 99 83 62 54 37 36 43 35 34 32 29 42 61 58 69 80 99 69 64 62 65 76 71 74 77 76 73 78 75 75 79 56 38 35 32 23 23 25 24 23 24 26 30
77 82 77 92 80 91 92 79 41 44 49 38 39 30 26 32 30 41 59 60 66 62 67 62 63 87 70 83 75 84 83 82 80 78 77 78 80 53 39 37 36 23 25 25 23 23 23 26 26
Wind_Speed
16 13 10 6 2 1 5 8 4 2 4 5 3 8 12 5 6 4 16 30 30 30 30 27 25 23 22 19 18 17 13 11 8 4 3 3 2 3 3 3 3 3 3 3 3 3 4 4 4
13 8 8 4 4 5 7 5 13 5 4 3 13 16 5 2 7 19 34 25 31 32 31 28 26 24 23 21 19 15 12 10 6 5 4 3 3 3 3 3 3 3 3 4 4 4 5 5 5
10 6 6 3 4 13 4 5 12 5 12 11 3 6 6 10 11 34 29 29 31 33 31 28 27 25 23 21 17 14 11 8 7 5 4 4 4 4 4 3 3 3 4 4 4 5 5 5 5
3 6 6 4 12 5 3 4 4 3 4 2 10 5 6 4 30 24 32 30 33 33 31 29 28 26 23 20 17 13 10 8 7 6 6 5 5 5 5 5 4 5 5 5 5 5 5 6 6
3 2 1 5 7 4 6 16 3 5 9 6 5 2 4 18 17 29 33 33 36 34 33 30 30 27 23 20 16 12 10 8 7 7 6 6 6 6 6 6 5 5 6 5 6 6 6 7 7
3 1 1 6 7 6 6 22 11 8 13 7 6 7 4 14 18 35 32 32 33 36 33 31 29 26 23 19 15 12 10 9 8 7 7 8 8 7 7 7 6 6 6 7 7 7 7 8 9
2 1 3 2 5 6 5 18 6 9 12 10 13 5 11 24 31 32 30 32 33 35 35 33 29 26 22 18 15 13 12 10 8 8 8 8 8 8 8 8 7 7 7 7 7 8 8 10 11
5 3 2 3 2 5 6 17 14 12 10 12 14 7 11 31 32 30 30 33 35 34 34 32 30 27 23 20 16 14 12 11 9 9 9 8 8 9 9 8 8 7 7 7 7 8 9 10 9
9 2 1 3 3 6 13 8 11 6 6 11 19 9 15 39 34 34 33 34 34 33 33 31 30 26 22 19 17 15 13 11 10 10 10 9 9 9 8 8 8 7 7 7 8 9 10 10 9
4 3 6 6 5 5 9 11 17 7 1 4 11 9 22 44 40 40 40 41 38 38 34 32 29 26 23 19 17 16 14 12 11 11 10 10 9 9 8 8 8 7 8 7 9 9 10 9 9
3 5 5 16 17 21 9 16 10 11 3 10 15 10 13 35 36 45 42 41 41 38 36 33 30 26 23 20 18 17 14 12 11 10 10 10 9 9 8 8 8 7 8 8 8 9 9 9 9
4 8 10 14 18 14 5 14 9 7 12 16 19 23 10 42 31 40 46 40 37 37 36 33 29 26 23 19 18 16 15 13 11 10 9 9 8 8 8 8 7 7 6 7 7 8 9 10 9
4 5 11 13 21 16 11 9 5 19 11 10 24 17 22 26 41 35 43 36 34 36 36 33 29 26 23 20 19 18 15 13 11 10 9 8 8 7 7 6 6 5 6 6 7 7 8 8 9
5 11 17 17 17 15 6 6 1 11 2 7 21 24 33 27 34 38 39 35 33 35 34 31 28 26 23 20 18 17 16 14 12 10 9 8 8 7 6 5 5 5 5 5 6 6 6 7 7
8 6 8 9 10 4 7 10 8 21 11 11 19 29 31 40 31 38 37 35 34 31 29 27 27 26 23 20 18 17 15 13 11 10 9 8 7 6 5 4 4 4 5 5 5 5 5 5 6
4 2 4 5 5 6 7 9 4 9 12 10 17 24 27 36 40 36 36 34 33 29 30 26 26 25 23 21 18 16 14 13 11 10 9 8 7 6 5 3 3 3 4 5 5 5 5 4 4
3 4 4 9 3 4 3 7 5 7 4 12 17 17 29 32 37 37 36 31 30 28 28 30 29 28 22 21 18 16 15 13 12 10 9 8 7 6 5 3 2 3 3 4 5 5 4 4 4
3 4 4 5 6 8 8 11 10 14 11 12 8 20 21 26 35 37 31 28 30 29 34 28 30 27 24 21 21 19 18 16 13 11 10 9 8 7 6 4 2 3 3 4 4 4 4 4 5
5 5 8 6 11 4 9 12 10 8 7 13 13 16 28 35 27 27 32 23 31 33 35 35 34 33 30 28 26 24 20 18 15 12 11 10 9 8 6 5 4 3 3 3 4 4 4 4 5
4 6 9 10 7 5 8 18 12 5 6 13 21 18 25 31 35 45 42 31 38 31 38 41 38 37 33 31 27 24 22 19 14 13 13 12 11 10 8 7 6 5 5 5 4 4 4 5 4
5 5 5 7 9 5 5 8 7 2 7 17 22 23 25 33 36 39 45 45 41 36 39 47 40 39 35 33 31 26 21 20 20 18 15 13 12 12 11 10 8 6 6 6 5 5 5 5 5
6 6 8 6 6 2 6 7 6 6 8 7 24 27 27 34 40 45 50 49 36 39 20 47 41 41 36 33 32 28 24 25 24 16 11 14 14 14 13 12 10 9 8 7 7 6 6 6 6
7 2 4 2 4 3 2 1 6 1 6 8 10 28 31 30 35 39 45 52 51 48 41 52 50 43 38 35 34 30 29 25 22 19 16 17 16 16 16 14 12 11 10 9 8 8 7 7 6
2 3 3 3 3 3 9 7 4 4 4 3 6 26 34 33 32 35 38 45 48 49 46 39 33 39 43 39 36 33 29 27 26 23 20 20 19 18 18 16 14 13 12 11 10 10 9 8 8
2 4 4 3 3 6 2 1 10 10 13 8 7 19 33 38 36 36 38 43 43 47 46 43 41 36 47 44 40 37 32 28 27 24 24 23 21 21 19 18 16 15 14 13 12 11 10 10 9
5 6 5 5 3 4 3 6 6 10 17 15 14 14 24 38 38 40 42 42 48 49 48 50 47 50 50 48 45 41 35 31 29 28 26 24 22 18 17 18 17 16 16 15 14 13 12 11 11
4 4 4 1 1 3 4 7 9 10 4 6 8 5 13 28 37 45 44 43 45 52 55 56 53 54 55 51 47 45 40 33 33 32 28 26 23 20 20 20 18 18 17 16 15 14 13 13 12
5 4 2 1 3 5 5 5 7 8 8 7 8 9 9 13 24 34 44 45 45 49 51 55 58 55 54 49 42 43 42 37 36 35 31 28 26 24 22 21 20 19 19 18 16 15 15 14 13
4 4 3 3 4 3 3 5 6 8 4 6 8 9 11 7 16 21 32 40 41 44 48 47 52 53 53 54 55 52 43 43 40 38 31 31 28 26 24 22 21 20 20 19 18 16 16 15 14
5 9 8 4 5 4 3 8 8 6 7 7 8 5 12 8 8 17 24 31 35 36 41 44 47 50 49 51 50 49 44 43 43 40 36 34 31 28 25 23 23 22 21 20 19 18 16 16 14
Wind_Direction
283 281 231 195 115 107 209 234 264 260 179 207 218 169 163 130 160 201 152 160 166 164 167 168 168 158 152 152 147 150 150 146 142 137 130 118 103 91 84 71 60 50 42 29 16 4 354 352 347
309 259 212 216 166 208 227 209 229 229 251 163 122 110 88 125 145 142 151 163 166 162 163 164 166 162 159 156 160 159 155 157 157 148 137 122 109 96 89 86 77 53 34 24 13 3 3 0 1
296 207 179 189 213 225 241 218 234 272 271 192 105 99 125 141 157 149 157 163 171 165 164 165 165 161 164 162 160 158 158 163 157 146 132 118 106 101 97 86 74 63 52 36 24 16 14 15 20
227 179 276 176 240 282 278 269 139 233 165 89 111 64 90 191 152 161 158 166 169 166 166 165 161 162 164 160 161 161 161 158 148 137 124 114 108 100 90 80 68 60 50 44 43 41 40 45 49
258 171 206 272 235 263 304 281 329 341 325 341 153 90 76 156 168 162 163 167 170 166 163 161 164 167 166 163 164 163 159 152 142 133 123 117 110 102 93 84 76 71 67 63 64 63 63 68 78
283 188 178 264 303 305 291 270 265 182 247 216 113 109 115 162 175 165 164 168 173 166 163 167 169 168 167 165 164 161 156 149 140 132 126 122 115 107 99 91 84 78 79 78 76 76 82 87 93
199 73 242 291 294 316 240 275 207 229 195 206 161 120 135 158 168 169 167 172 172 167 166 170 171 169 166 166 165 162 157 149 141 133 126 123 116 109 102 96 91 85 80 82 91 91 89 91 95
216 179 235 291 289 282 302 323 300 254 224 194 176 171 157 168 171 172 170 173 173 172 174 174 172 171 170 168 167 164 159 152 142 133 130 127 119 110 106 98 96 89 91 85 87 91 92 93 92
227 246 193 245 273 284 334 358 340 316 175 186 192 166 172 164 173 175 173 173 177 181 179 177 174 173 172 170 167 166 161 154 143 140 137 135 126 113 104 104 99 95 93 91 86 85 90 89 88
194 203 231 223 256 276 315 339 334 332 31 206 196 187 159 169 174 182 184 179 181 182 182 180 178 176 175 173 172 169 164 157 148 144 141 138 125 118 114 109 107 98 92 93 87 88 86 88 87
248 211 229 274 271 279 288 314 345 312 282 211 201 233 208 176 178 188 190 186 183 183 184 182 180 179 179 177 175 171 165 160 153 148 142 136 131 124 116 108 101 92 88 84 86 85 90 90 93
280 274 263 273 288 292 255 285 325 302 286 281 218 220 154 185 182 189 189 186 183 186 187 183 182 182 181 182 176 175 169 164 159 149 147 137 131 127 114 104 98 96 96 92 93 90 92 95 92
213 269 294 282 299 289 302 269 272 295 309 236 213 210 175 194 190 190 187 185 188 188 187 184 184 185 183 184 180 176 172 167 160 156 148 143 140 129 119 111 102 101 100 99 98 93 98 95 94
289 289 287 296 283 283 271 276 1 267 285 203 175 181 182 216 184 186 184 184 190 190 188 186 186 186 187 188 186 179 175 171 167 159 157 155 147 141 129 111 101 99 106 105 104 101 101 97 97
289 310 316 273 267 276 287 277 209 260 267 211 199 202 194 210 220 188 187 189 194 193 191 192 188 188 189 190 187 183 178 175 169 165 165 160 153 148 141 118 103 108 110 110 110 109 108 111 109
311 347 334 295 323 271 150 273 241 214 282 246 192 204 207 199 198 189 189 193 192 195 194 202 194 194 192 192 189 185 182 180 178 175 174 170 167 162 160 141 116 116 119 124 125 121 121 130 122
340 269 273 316 344 288 188 259 232 206 313 270 213 180 203 202 201 192 191 194 197 198 204 206 202 197 196 196 193 189 189 188 188 187 185 183 180 180 179 172 147 134 134 130 134 133 131 123 139
305 312 300 271 301 342 278 268 264 263 278 278 259 190 167 202 186 193 195 194 210 211 212 210 210 200 202 205 200 195 192 193 196 196 196 198 198 198 197 198 182 164 156 149 147 148 144 126 144
285 278 276 278 279 293 283 282 281 260 244 244 238 206 194 194 215 221 216 218 224 223 210 210 215 201 206 205 203 199 196 197 198 201 207 207 209 211 213 213 216 203 182 171 174 169 158 142 156
256 287 288 287 276 328 300 290 274 241 200 237 242 207 213 203 202 211 210 202 218 217 216 215 216 207 205 213 212 208 203 203 200 205 214 216 218 221 223 223 224 221 205 200 196 187 182 171 168
257 228 269 264 311 275 308 281 262 277 218 231 238 227 211 199 195 202 202 199 204 221 226 213 213 211 211 212 213 209 203 206 202 207 217 224 224 227 226 229 228 227 221 217 212 208 205 193 180
275 236 237 296 1 281 52 297 230 254 261 223 224 222 215 211 211 206 200 205 203 206 234 217 213 212 214 213 212 212 216 223 223 217 221 229 229 232 232 232 230 229 226 224 221 222 214 211 201
234 268 244 222 296 338 295 327 272 39 275 262 229 224 218 216 219 216 211 215 211 206 210 217 209 212 214 218 215 219 226 223 222 214 221 233 234 233 233 233 231 230 228 228 226 227 226 220 217
314 301 347 56 121 289 224 184 287 240 196 260 228 224 220 212 221 221 215 214 223 218 214 206 217 217 218 218 219 223 226 224 220 226 229 237 235 232 233 233 230 229 229 233 231 230 230 230 230
110 59 326 343 211 233 306 191 250 275 262 225 233 224 223 219 217 219 212 212 209 210 205 203 203 211 224 217 219 222 224 225 233 233 242 237 234 236 235 233 230 232 231 232 232 231 232 235 237
172 162 164 238 238 262 190 237 250 231 258 276 257 251 235 227 224 222 221 220 218 207 209 203 207 211 214 216 220 221 220 222 230 231 239 241 243 245 239 233 230 230 232 232 230 232 234 236 238
199 188 190 273 313 271 233 286 294 269 284 329 274 268 225 232 230 232 229 223 227 220 217 216 216 218 216 214 218 221 219 219 229 233 234 240 243 240 236 232 231 232 234 233 233 233 237 236 235
165 164 121 79 265 271 280 262 234 291 318 334 328 313 291 247 242 238 233 230 227 227 226 221 222 221 221 217 221 231 222 220 227 232 233 238 240 237 235 233 231 233 237 236 234 232 233 233 231
155 200 198 171 181 216 303 262 216 225 246 311 294 308 336 297 244 248 238 236 233 231 225 226 221 221 219 216 221 222 219 221 226 229 233 236 238 238 236 233 233 236 238 237 234 230 231 228 227
187 190 165 156 222 223 155 270 259 253 288 279 268 302 3 350 264 249 243 238 233 241 236 230 225 224 224 225 227 223 221 223 225 229 231 233 235 235 236 235 237 236 235 235 232 229 227 227 227